Location: Columbia
(38.9520°N, 92.3340°W)
Time: 19:26:45
(UTC-05:00)

CZ-2C R/B - Visible Passes

Search period start: 21 May 2018 00:00
Search period end: 31 May 2018 00:00
Orbit: 705 x 907 km, 98.2° (Epoch: 21 May)

Date Brightness Start Highest point End Pass type
(mag) Time Alt. Az. Time Alt. Az. Time Alt. Az.
21 May 5.2 00:47:18 17° W 00:47:18 17° W 00:50:23 10° NW visible
21 May 4.0 22:41:02 31° E 22:42:05 34° ENE 22:46:58 10° N visible
22 May 4.5 00:22:06 29° W 00:22:06 29° W 00:26:36 10° NW visible
22 May 4.7 22:15:51 18° E 22:17:33 21° ENE 22:21:33 10° NNE visible
22 May 3.6 23:56:54 49° W 23:56:56 49° W 00:02:16 10° NNW visible
23 May 5.2 21:50:45 10° E 21:53:06 13° ENE 21:55:29 10° NNE visible
23 May 3.0 23:31:43 78° SSW 23:32:04 84° WSW 23:37:38 10° NNW visible
24 May 3.3 23:06:31 53° ESE 23:07:19 58° ENE 23:12:47 10° N visible
25 May 5.1 00:47:35 17° W 00:47:36 17° W 00:51:02 10° NW visible
25 May 4.0 22:41:20 31° E 22:42:40 35° ENE 22:47:42 10° N visible
26 May 4.5 00:22:23 28° W 00:22:31 29° W 00:27:16 10° NW visible
26 May 4.7 22:16:09 18° E 22:18:07 22° ENE 22:22:19 10° NNE visible
26 May 3.6 23:57:12 48° WSW 23:57:32 48° W 00:02:57 10° NNW visible
27 May 5.2 21:51:01 10° E 21:53:41 14° ENE 21:56:23 10° NNE visible
27 May 3.0 23:32:01 69° S 23:32:40 82° WSW 23:38:20 10° NNW visible
28 May 3.3 23:06:51 51° ESE 23:07:55 61° ENE 23:13:29 10° N visible
29 May 5.2 00:47:54 17° W 00:48:13 17° W 00:51:42 10° NW visible
29 May 4.0 22:41:40 31° ESE 22:43:16 37° ENE 22:48:25 10° N visible
30 May 4.5 00:22:43 28° WSW 00:23:08 28° W 00:27:57 10° NW visible
30 May 4.7 22:16:29 18° E 22:18:43 23° ENE 22:23:05 10° NNE visible
